Station PTWW1 - 9444900 - Port Townsend, WA Image indicating link to RSS feed of recent meteorological observations for station PTWW1


Conditions at PTWW1 as of
(8:00 am PDT)
1500 GMT on 04/15/2024:
     

Click on the graph icon in the table below to see a time series plot of the last five days of that observation.

5-day plot - Wind Direction Wind Direction (WDIR): SW ( 220 deg true )
5-day plot - Wind Speed Wind Speed (WSPD): 5.1 kts
5-day plot - Wind Gust Wind Gust (GST): 7.0 kts
5-day plot - Atmospheric Pressure Atmospheric Pressure (PRES):30.24 in
5-day plot - Pressure Tendency Pressure Tendency (PTDY):+0.03 in ( Rising )
5-day plot - Air Temperature Air Temperature (ATMP): 47.5 °F
5-day plot - Water Temperature Water Temperature (WTMP): 48.7 °F
5-day plot - Wind Chill Wind Chill (CHILL): 44.8 °F
5-day plot - Wind Speed at 10 Meters Wind Speed at 10 meters (WSPD10M): 5.8 kts
5-day plot - Wind Speed at 20 Meters Wind Speed at 20 meters (WSPD20M): 5.8 kts
5-day plot -  Wind Speed, Wind Gust and Atmospheric Pressure Combined plot of Wind Speed, Gust, and Air Pressure
NOS Water Level Observation Network Water Level
Previous observations
TIME
(PDT)
5-day plot - Wind Direction
WDIR
 
5-day plot - Wind Speed
WSPD
kts
5-day plot - Wind Gust
GST
kts
5-day plot - Wave Height
WVHT
ft
5-day plot - Dominant Wave Period
DPD
sec
5-day plot - Average Wave Period
APD
sec
5-day plot - Mean Wave Direction
MWD
 
5-day plot - Atmospheric Pressure
PRES
in
5-day plot - Pressure Tendency
PTDY
in
5-day plot - Air Temperature
ATMP
°F
5-day plot - Water Temperature
WTMP
°F
5-day plot - Dew Point
DEWP
°F
5-day plot - Salinity
SAL
psu
5-day plot - Visibility
VIS
nmi
5-day plot - Tide (above MLLW)
TIDE
ft
2024-04-15 07:54 amSSW 5.1 6.0----30.24- 47.7 48.7----
2024-04-15 07:48 amSSW 5.1 7.0----30.24- 47.5 48.7----
2024-04-15 07:42 amSSW 5.1 6.0----30.24- 47.7 48.7----
2024-04-15 07:36 am SW 4.1 5.1----30.24- 47.8 48.7----
2024-04-15 07:30 am SW 4.1 6.0----30.23-- 48.7----
2024-04-15 07:24 amSSW 4.1 6.0----30.23-- 48.7----
2024-04-15 07:18 am SW 4.1 6.0----30.22- 47.3 48.7----
2024-04-15 07:12 amSSW 5.1 6.0----30.22- 47.7 48.7----
2024-04-15 07:06 am SW 4.1 6.0----30.22- 47.7 48.7----
2024-04-15 07:00 am SW 2.9 5.1----30.22+0.02 47.7 48.7----
2024-04-15 06:54 am SW 4.1 6.0----30.21- 47.8 48.7----
2024-04-15 06:48 amSSW 4.1 8.0----30.21-- 48.7----
2024-04-15 06:42 amSSW 5.1 6.0----30.21- 48.0 48.7----
2024-04-15 06:36 am SW 2.9 5.1----30.21- 48.0 48.7----
2024-04-15 06:30 am SW 2.9 4.1----30.21- 48.0 48.7----
2024-04-15 06:24 am W 1.9 4.1----30.21- 47.8 48.7----
2024-04-15 06:18 amWSW 5.1 8.0----30.21- 48.2 48.7----
2024-04-15 06:12 am- 0.0 4.1----30.21- 47.7 48.7----
2024-04-15 06:06 am S 1.0 1.9----30.21- 47.7 48.7----
2024-04-15 06:00 amNNW 1.9 2.9----30.21+0.04 47.3 48.7----
2024-04-15 05:54 am SE 1.0 2.9----30.21- 47.3 48.7----
2024-04-15 05:48 am- 0.0 1.9----30.21- 47.1 48.7----
2024-04-15 05:42 am SE 1.0 2.9----30.21- 47.3 48.7----
2024-04-15 05:36 am S 1.9 4.1----30.21- 47.5 48.7----
2024-04-15 05:30 amESE 2.9 5.1----30.21- 46.9 48.9----
2024-04-15 05:24 amESE 4.1 5.1----30.21- 47.3 48.9----
2024-04-15 05:18 amESE 5.1 6.0----30.21- 47.3 48.9----
2024-04-15 05:12 amESE 6.0 6.0----30.21- 47.3 48.9----
2024-04-15 05:06 am SE 5.1 5.1----30.21- 47.7 48.9----
2024-04-15 05:00 am S 4.1 5.1----30.21+0.05 47.7 48.9----
2024-04-15 04:54 am S 1.9 4.1----30.21- 47.8 48.9----
2024-04-15 04:48 amSSE 2.9 4.1----30.21-- 48.9----
2024-04-15 04:42 amSSW 2.9 5.1----30.21- 48.0 48.9----
2024-04-15 04:36 amSSW 5.1 6.0----30.21- 48.0 48.9----
2024-04-15 04:30 am SW 1.0 1.9----30.21- 48.0 48.9----
2024-04-15 04:24 amWSW 1.9 2.9----30.20- 48.2 48.9----
2024-04-15 04:18 am W 1.9 4.1----30.20-- 48.9----
2024-04-15 04:12 am W 2.9 4.1----30.19- 48.4 48.9----
2024-04-15 04:06 am W 4.1 5.1----30.19- 48.4 48.9----
2024-04-15 04:00 amWSW 1.9 2.9----30.19+0.04 48.4 48.7----
2024-04-15 03:54 amWSW 2.9 5.1----30.19- 48.6 48.7----
2024-04-15 03:48 am SW 4.1 5.1----30.19- 48.6 48.7----
2024-04-15 03:42 am SW 2.9 4.1----30.19- 48.7 48.7----
2024-04-15 03:36 amWSW 2.9 4.1----30.18- 48.7 48.7----
2024-04-15 03:30 amWSW 1.9 4.1----30.18- 48.6 48.7----
2024-04-15 03:24 am W 2.9 4.1----30.18- 48.7 48.7----
2024-04-15 03:18 amWSW 2.9 5.1----30.18- 48.7 48.7----
2024-04-15 03:12 am SW 2.9 5.1----30.18- 48.7 48.7----
2024-04-15 03:06 am W 1.9 5.1----30.17- 48.7 48.7----
2024-04-15 03:00 am W 2.9 5.1----30.17+0.05 48.7 48.7----
2024-04-15 02:54 am W 4.1 5.1----30.17- 48.6 48.7----
2024-04-15 02:48 amWSW 4.1 6.0----30.17- 48.6 48.7----
2024-04-15 02:42 amWSW 1.9 7.0----30.17- 48.6 48.7----
2024-04-15 02:36 am W 2.9 6.0----30.16- 48.6 48.7----
2024-04-15 02:30 amWSW 5.1 8.0----30.17- 48.4 48.7----
2024-04-15 02:24 am SW 4.1 8.0----30.17- 48.6 48.7----
2024-04-15 02:18 am SW 5.1 8.0----30.16- 48.6 48.7----
2024-04-15 02:12 am SW 7.0 9.9----30.16- 48.6 48.7----
2024-04-15 02:06 amWSW 6.0 9.9----30.16- 48.6 48.7----
2024-04-15 02:00 amWSW 8.0 11.1----30.16+0.06 48.6 48.7----
2024-04-15 01:54 am SW 7.0 11.1----30.16- 48.6 48.7----
2024-04-15 01:48 am SW 7.0 12.0----30.16- 48.6 48.7----
2024-04-15 01:42 am SW 8.0 11.1----30.16- 48.6 48.7----
2024-04-15 01:36 am SW 8.9 15.0----30.16- 48.6 48.7----
2024-04-15 01:30 am SW 8.0 14.0----30.16- 48.7 48.7----
2024-04-15 01:24 amWSW 12.0 15.0----30.16- 48.7 48.7----
2024-04-15 01:18 am SW 8.0 12.0----30.16- 48.7 48.7----
2024-04-15 01:12 amWSW 8.9 15.0----30.15- 48.7 48.7----
2024-04-15 01:06 amWSW 12.0 17.1----30.15- 48.7 48.7----
2024-04-15 01:00 amWSW 8.0 15.0----30.15+0.07 48.7 48.7----
2024-04-15 12:54 amWSW 12.0 18.1----30.15- 48.7 48.7----
2024-04-15 12:48 amWSW 11.1 18.1----30.14-- 48.7----
2024-04-15 12:42 amWSW 12.0 21.0----30.14- 48.7 48.7----
2024-04-15 12:36 amWSW 11.1 17.1----30.14- 48.7 48.7----
2024-04-15 12:30 amWSW 11.1 19.0----30.14- 48.7 48.7----
2024-04-15 12:24 amWSW 11.1 17.1----30.14- 48.7 48.6----
2024-04-15 12:18 amWSW 9.9 18.1----30.14-- 48.6----
2024-04-15 12:12 am W 13.0 18.1----30.13- 48.7 48.6----
2024-04-15 12:06 amWSW 11.1 19.0----30.13- 48.6 48.6----
2024-04-15 12:00 amWSW 8.9 15.9----30.13+0.06 48.6 48.6----
2024-04-14 11:54 pmWSW 9.9 17.1----30.12- 48.4 48.6----
2024-04-14 11:48 pmWSW 11.1 21.0----30.12- 48.4 48.7----
2024-04-14 11:42 pmWSW 9.9 18.1----30.12- 48.4 48.7----
2024-04-14 11:36 pmWSW 12.0 18.1----30.12- 48.4 48.7----
2024-04-14 11:30 pmWSW 12.0 18.1----30.11- 48.4 48.7----
2024-04-14 11:24 pmWSW 9.9 19.0----30.11- 48.4 48.7----
2024-04-14 11:18 pm W 13.0 20.0----30.11-- 48.7----
2024-04-14 11:12 pm W 15.0 22.9----30.10- 48.4 48.7----
2024-04-14 11:06 pmWSW 13.0 18.1----30.10- 48.4 48.7----
2024-04-14 11:00 pmWSW 13.0 20.0----30.10+0.05 48.4 48.7----
2024-04-14 10:54 pmWSW 14.0 22.9----30.09- 48.4 48.7----
2024-04-14 10:48 pmWSW 15.0 22.0----30.09- 48.4 48.7----
2024-04-14 10:42 pmWSW 11.1 20.0----30.09- 48.4 48.7----
2024-04-14 10:36 pmWSW 13.0 21.0----30.09- 48.4 48.7----
2024-04-14 10:30 pmWSW 15.0 22.0----30.09- 48.6 48.7----
2024-04-14 10:24 pmWSW 15.9 21.0----30.09- 48.6 48.7----
2024-04-14 10:18 pmWSW 15.0 24.1----30.09- 48.6 48.7----
2024-04-14 10:12 pmWSW 15.9 22.9----30.09- 48.7 48.7----
2024-04-14 10:06 pmWSW 11.1 22.0----30.08- 48.7 48.7----
2024-04-14 10:00 pmWSW 15.9 25.1----30.08+0.04 48.7 48.9----
2024-04-14 09:54 pmWSW 13.0 22.0----30.08- 48.7 48.9----
2024-04-14 09:48 pmWSW 17.1 25.1----30.08- 48.9 48.9----
2024-04-14 09:42 pmWSW 18.1 28.0----30.08- 48.9 49.1----
2024-04-14 09:36 pmWSW 13.0 22.9----30.08- 48.9 49.1----
2024-04-14 09:30 pmWSW 13.0 24.1----30.08- 48.9 49.3----
2024-04-14 09:24 pm W 19.0 26.0----30.07- 48.9 49.3----
2024-04-14 09:18 pmWSW 14.0 22.0----30.07-- 49.5----
2024-04-14 09:12 pmWSW 15.0 24.1----30.07- 48.9 49.5----
2024-04-14 09:06 pmWSW 14.0 25.1----30.07- 48.7 49.5----
2024-04-14 09:00 pmWSW 14.0 20.0----30.07+0.03 48.7 49.3----
2024-04-14 08:54 pmWSW 12.0 24.1----30.06- 48.7 49.3----
2024-04-14 08:48 pmWSW 14.0 22.9----30.06-- 49.3----
2024-04-14 08:42 pmWSW 15.0 22.0----30.06- 48.9 49.3----
2024-04-14 08:36 pmWSW 14.0 25.1----30.06- 48.9 49.3----
2024-04-14 08:30 pm W 15.0 25.1----30.06- 48.9 49.3----
2024-04-14 08:24 pm W 12.0 20.0----30.05- 48.9 49.3----
2024-04-14 08:18 pmWSW 15.9 24.1----30.05- 48.9 49.3----
2024-04-14 08:12 pmWSW 14.0 28.0----30.05- 49.1 49.3----
2024-04-14 08:06 pmWSW 14.0 22.0----30.05- 49.1 49.3----
2024-04-14 08:00 pmWSW 15.0 24.1----30.05+0.02 49.1 49.3----
2024-04-14 07:54 pmWSW 12.0 21.0----30.05- 49.1 49.3----
2024-04-14 07:48 pmWSW 15.9 24.1----30.05- 49.3 49.3----
2024-04-14 07:42 pmWSW 15.0 24.1----30.04- 49.3 49.1----
2024-04-14 07:36 pmWSW 15.9 26.0----30.04- 49.5 49.1----
2024-04-14 07:30 pmWSW 15.9 22.9----30.04- 49.6 49.1----
2024-04-14 07:24 pmWSW 9.9 20.0----30.04- 49.8 49.1----
2024-04-14 07:18 pmWSW 15.0 22.0----30.04-------
2024-04-14 07:12 pmWSW 13.0 20.0----30.04- 49.8 49.1----
2024-04-14 07:06 pmWSW 13.0 22.9----30.04- 50.0 49.1----
2024-04-14 07:00 pmWSW 15.9 21.0----30.04+0.00 50.0 49.1----
2024-04-14 06:54 pm W 13.0 22.9----30.04- 50.2 49.1----
2024-04-14 06:48 pmWSW 13.0 26.0----30.04- 50.5 49.1----
2024-04-14 06:42 pmWSW 12.0 21.0----30.04- 50.7 49.1----
2024-04-14 06:36 pmWSW 13.0 18.1----30.04- 50.9 49.3----
2024-04-14 06:30 pmWSW 14.0 19.0----30.04- 51.3 49.5----
2024-04-14 06:24 pmWSW 14.0 21.0----30.04- 52.0 49.5----
2024-04-14 06:18 pmWSW 13.0 19.0----30.04-- 49.5----
2024-04-14 06:12 pmWSW 9.9 14.0----30.03- 52.9 49.6----
2024-04-14 06:06 pmWSW 12.0 18.1----30.03- 53.2 49.6----
2024-04-14 06:00 pmWSW 8.0 14.0----30.03+0.00 53.8 49.6----
2024-04-14 05:54 pmWSW 9.9 13.0----30.03- 54.0 49.6----
2024-04-14 05:48 pm SW 7.0 15.9----30.03-- 49.6----
2024-04-14 05:42 pm SW 8.9 12.0----30.04-- 49.6----
2024-04-14 05:36 pm SW 8.0 11.1----30.04-- 49.6----
2024-04-14 05:30 pm-------30.03- 55.4 49.5----
2024-04-14 05:24 pm-------30.04- 55.4 49.5----
2024-04-14 05:18 pmWSW 9.9 15.0------- 49.5----
2024-04-14 05:12 pmWSW 8.0 13.0------ 55.8 49.5----
2024-04-14 05:06 pmWSW 8.9 12.0------ 55.8 49.5----
2024-04-14 05:00 pm W 7.0 11.1----30.03+0.00 56.3 49.5----
2024-04-14 04:54 pm W 7.0 12.0----30.03- 56.3 49.5----
2024-04-14 04:48 pm W 8.0 11.1----30.03- 56.5 49.5----
2024-04-14 04:42 pm W 7.0 11.1----30.03- 56.3 49.5----
2024-04-14 04:36 pmWSW 7.0 12.0----30.03- 55.8 49.5----
2024-04-14 04:30 pmWSW 8.0 12.0----30.03- 56.3 49.5----
2024-04-14 04:24 pm W 7.0 11.1----30.03- 56.7 49.5----
2024-04-14 04:18 pmWNW 8.0 12.0----30.04- 56.1 49.5----
2024-04-14 04:12 pm W 7.0 9.9----30.04- 56.7 49.5----
2024-04-14 04:06 pm W 7.0 9.9----30.03- 55.6 49.5----
2024-04-14 04:00 pmWNW 5.1 8.9----30.03+0.00- 49.5----
2024-04-14 03:54 pmWNW 4.1 8.9----30.03-- 49.5----
2024-04-14 03:48 pm W 5.1 9.9----30.03-- 49.5----
2024-04-14 03:42 pm W 5.1 11.1----30.03- 55.9 49.5----
2024-04-14 03:36 pm W 7.0 12.0----30.03- 55.4 49.5----
2024-04-14 03:30 pmWNW 7.0 11.1----30.03- 55.2 49.5----
2024-04-14 03:24 pm W 8.0 11.1----30.04- 55.4 49.3----
2024-04-14 03:18 pm W 8.0 11.1----30.04- 55.0 49.3----
2024-04-14 03:12 pm W 8.0 11.1----30.04- 55.4 49.3----
2024-04-14 03:06 pmWNW 8.0 11.1----30.04- 55.0 49.3----
2024-04-14 03:00 pmWNW 9.9 12.0----30.04+0.00 54.7 49.3----
2024-04-14 02:54 pmWNW 8.0 11.1----30.04- 54.7 49.3----
2024-04-14 02:48 pmWNW 5.1 8.0----30.04-- 49.3----
2024-04-14 02:42 pm W 7.0 9.9----30.03-- 49.3----
2024-04-14 02:36 pmWNW 8.9 11.1----30.04-- 49.3----
2024-04-14 02:30 pmWNW 5.1 11.1----30.03-- 49.3----
2024-04-14 02:24 pm NW 7.0 8.9----30.03-- 49.3----
2024-04-14 02:18 pmWNW 6.0 8.9----30.03- 57.6 49.3----
2024-04-14 02:12 pmWNW 5.1 8.9----30.03- 58.8 49.1----
2024-04-14 02:06 pmWNW 6.0 7.0----30.03- 57.4 49.1----
2024-04-14 02:00 pm NW 4.1 7.0----30.03+0.00 59.2 49.1----
2024-04-14 01:54 pmWNW 4.1 7.0----30.03- 57.7 49.1----
2024-04-14 01:48 pm W 4.1 6.0----30.04- 58.3 49.1----
2024-04-14 01:42 pm NW 4.1 7.0----30.04- 58.3 48.9----
2024-04-14 01:36 pmWNW 5.1 8.0----30.03- 58.8 48.9----
2024-04-14 01:30 pm NW 4.1 7.0----30.03- 58.1 48.9----
2024-04-14 01:24 pm NW 7.0 8.9----30.03- 57.7 48.7----
2024-04-14 01:18 pm W 7.0 8.9----30.03- 55.6 48.7----
2024-04-14 01:12 pm W 5.1 7.0----30.03- 56.7 48.7----
2024-04-14 01:06 pmWNW 5.1 8.0----30.03- 56.3 48.7----
2024-04-14 01:00 pmWNW 5.1 7.0----30.03+0.00 57.2 48.7----
2024-04-14 12:54 pmWNW 4.1 8.0----30.03- 56.7 48.7----
2024-04-14 12:48 pm W 5.1 8.0----30.03- 56.1 48.7----
2024-04-14 12:42 pm- 0.0 6.0----30.03- 58.5 48.7----
2024-04-14 12:36 pmNNW 1.9 4.1----30.03- 57.4 48.7----
2024-04-14 12:30 pm W 2.9 6.0----30.03- 56.8 48.7----
2024-04-14 12:24 pm NW 2.9 7.0----30.03- 57.0 48.7----
2024-04-14 12:18 pmNNW 1.9 6.0----30.03-- 48.7----
2024-04-14 12:12 pmWNW 4.1 7.0----30.04- 55.4 48.7----
2024-04-14 12:06 pm W 6.0 7.0----30.04- 54.0 48.7----
2024-04-14 12:00 pm W 6.0 8.0----30.04+0.01------
2024-04-14 11:54 am W 5.1 8.0----30.04-------
2024-04-14 11:48 amWNW 5.1 7.0----30.04- 54.3 48.7----
2024-04-14 11:42 am W 5.1 8.0----30.04- 53.2 48.7----
2024-04-14 11:36 am W 5.1 8.9----30.04- 54.0 48.7----
2024-04-14 11:30 amWNW 5.1 8.9----30.04- 53.1 48.7----
2024-04-14 11:24 amWNW 2.9 7.0----30.04- 54.1 48.7----
2024-04-14 11:18 am NW 5.1 8.0----30.04- 53.2 48.7----
2024-04-14 11:12 am W 4.1 8.9----30.04- 53.4 48.7----
2024-04-14 11:06 amWNW 5.1 7.0----30.04- 52.5 48.7----
2024-04-14 11:00 amWNW 4.1 8.9----30.04+0.02 53.1 48.7----
2024-04-14 10:54 amWNW 5.1 8.0----30.04- 52.3 48.7----
2024-04-14 10:48 am W 5.1 8.0----30.04- 52.3 48.7----
2024-04-14 10:42 am W 6.0 8.0----30.04- 52.2 48.7----
2024-04-14 10:36 am NW 5.1 8.0----30.04- 53.1 48.7----
2024-04-14 10:30 amWNW 6.0 8.9----30.04- 51.6 48.7----
2024-04-14 10:24 amWNW 6.0 8.0----30.04- 51.8 48.7----
2024-04-14 10:18 amWNW 6.0 9.9----30.04- 52.2 48.7----
2024-04-14 10:12 amWNW 5.1 8.0----30.03- 52.3 48.7----
2024-04-14 10:06 am NW 4.1 8.0----30.03- 52.3 48.7----
2024-04-14 10:00 amWNW 5.1 8.0----30.03+0.02 51.4 48.7----
2024-04-14 09:54 am NW 2.9 7.0----30.03- 52.7 48.7----
2024-04-14 09:48 amWNW 4.1 7.0----30.03-- 48.7----
2024-04-14 09:42 amWNW 4.1 7.0----30.03-- 48.7----
2024-04-14 09:36 am NW 5.1 7.0----30.03-- 48.7----
2024-04-14 09:30 am NW 6.0 7.0----30.03-- 48.7----
2024-04-14 09:24 am W 5.1 6.0----30.02-- 48.7----
2024-04-14 09:18 am W 5.1 6.0----30.02-------
2024-04-14 09:12 amWNW 2.9 5.1----30.02- 51.8 48.6----
2024-04-14 09:06 am W 4.1 6.0----30.02- 51.3 48.6----
2024-04-14 09:00 am W 4.1 5.1----30.02+0.03 50.9 48.6----
2024-04-14 08:54 amWNW 2.9 6.0----30.02- 50.9 48.6----
2024-04-14 08:48 am W 2.9 5.1----30.02- 50.7 48.6----
2024-04-14 08:42 amWSW 1.0 2.9----30.02- 51.1 48.6----
2024-04-14 08:36 am W 1.9 4.1----30.02- 50.5 48.6----
2024-04-14 08:30 am NW 1.0 4.1----30.02-- 48.6----
2024-04-14 08:24 am- 0.0 5.1----30.02-- 48.6----
2024-04-14 08:18 amWNW 4.1 5.1----30.02-- 48.6----
2024-04-14 08:12 am W 1.9 4.1----30.02-- 48.6----
2024-04-14 08:06 am W 1.9 2.9----30.02-- 48.6----
2024-04-14 08:00 am W 2.9 4.1----30.02+0.04 49.3 48.6----
2024-04-14 07:54 am W 2.9 5.1----30.02- 48.9 48.6----